Hourly Data Report for November 15, 2011

HALIFAX STANFIELD INT'L A
NOVA SCOTIA

44°52'48.060" N
63°30'00.050" W
145.40 m
8202250
71395
YHZ

Download Data

Hourly Data (November 2011)
Hourly Data Report for November 15, 2011
TIME
LST
Temp Definition
°C
Dew Point Definition
°C
Rel Hum Definition
%
Precip. Amount Definition
mm

Wind Dir Definition
10's deg

Wind Spd Definition
km/h
Visibility Definition
km
Stn Press Definition
kPa
Hmdx Definition


Wind Chill Definition


Weather Definition


00:00 11.0 10.6 97   21 11 19.3 99.22     Cloudy
01:00 10.9 10.7 99   19 24 12.9 99.13     Rain Showers
02:00 11.0 10.7 98   20 26 16.1 99.11     Rain Showers
03:00 11.2 11.0 99   20 28 12.9 99.06     Rain Showers
04:00 11.4 11.3 99   20 30 19.3 98.96     Cloudy
05:00 11.5 11.3 99   20 32 16.1 98.91     Cloudy
06:00 11.4 11.3 99   20 33 4.8 98.82     Rain Showers, Fog
07:00 11.5 11.4 99   20 33 3.2 98.74     Rain Showers, Fog
08:00 11.7 11.7 100   20 35 2.4 98.65     Fog
09:00 11.9 11.9 100   21 30 2.4 98.69     Rain Showers, Fog
10:00 11.9 11.8 99   22 26 2.4 98.63     Fog
11:00 12.3 12.0 98   22 24 6.4 98.54     Fog
12:00 13.1 12.3 95   23 28 16.1 98.57     Cloudy
13:00 13.9 12.8 93   23 26 19.3 98.51     Cloudy
14:00 15.2 12.6 84   25 17 24.1 98.56     Mostly Cloudy
15:00 15.1 12.3 83   24 19 24.1 98.59     Cloudy
16:00 14.4 11.9 85   24 11 24.1 98.64     Cloudy
17:00 13.7 11.9 89   24 11 24.1 98.71     Cloudy
18:00 13.9 11.7 87   27 19 24.1 98.86     Cloudy
19:00 13.2 10.5 84   27 11 24.1 98.91     Cloudy
20:00 12.6 10.6 88   27 11 24.1 98.97     Cloudy
21:00 11.5 9.4 87   31 17 24.1 99.05     Mostly Cloudy
22:00 10.6 7.8 83   30 20 24.1 99.17     Mostly Cloudy
23:00 9.6 6.8 83   29 17 24.1 99.23     Mostly Cloudy

Notes on Data Quality.

Legend

  • E = Estimated
  • M = Missing
  • NA = Not Available*
  • [empty] = Indicates an unobserved value
Date modified: